(32754) = 1981 EK15 = 1997 CU27

Discovered at Siding Spring on 1981-03-01 by S. J. Bus.

Orbit

Orbit type: Main Belt

Note: WebGL enabled browser required.

epoch2024-03-31.0
epoch JD2460400.5
perihelion date2023-11-23.01924
perihelion JD2460271.51924
argument of perihelion (°)114.00236
ascending node (°)341.54957
inclination (°)10.60971
eccentricity0.0970875
perihelion distance (AU)2.8105711
Tisserand w.r.t. Jupiter3.2
ΔV w.r.t. Earth (km/sec)10.9
semimajor axis (AU)3.1127836
mean anomaly (°)23.14757
mean daily motion (°/day)0.17946530
aphelion distance (AU)3.415
period (years)5.49
P-vector [x]-0.10169052
P-vector [y]0.83268088
P-vector [z]0.54433592
Q-vector [x]-0.99310805
Q-vector [y]-0.05292074
Q-vector [z]-0.10457436
absolute magnitude14.69
phase slope0.15
uncertainty0
referenceMPEC 2024-C60
observations used946
oppositions19
arc length (days)15698
first opposition used1981
last opposition used2024
residual rms (arc-secs)0.70
perturbers coarse indicatorM-v
perturbers precise indicator003Ek
first observation date used1981-02-12.0
last observation date used2024-02-05.0
computer nameMPCLINUX
JD of orbit computation2456937.201359
perihelion JD uncertainty (days)2.1404E-04
argument of perihelion uncertainty (°)5.1329E-05
ascending node uncertainty (°)2.8878E-05
inclination uncertainty (°)6.8147E-06
eccentricity uncertainty 4.8911E-08
perihelion distance uncertainty (AU)1.5150E-07
Minimum Orbit Intersection Distances (in AU)
for orbit epoch: 2460200.5, reference: E2024-C60
Mercury2.49924
Venus2.1014
Earth1.84674
Mars1.21203
Jupiter1.742
Saturn6.3078
Uranus15.4142
Neptune26.7519

Observations

959 total observations over interval: 1981 02 12.65408 – 2024 02 05.392798
These data are available for download (format description).

Date (UT) J2000 RA J2000 Dec Magn Location Ref
1981 02 12.65408 12 35 13.12 -07 50 04.5   413 – Siding Spring Observatory MPC 9634
1981 02 12.74480 12 35 11.08 -07 50 15.8   413 – Siding Spring Observatory MPC 9634
1981 03 01.59302 12 26 43.90 -08 06 07.3 19.0 V 413 – Siding Spring Observatory MPC 7550
1981 03 08.68165 12 21 38.50 -08 01 57.0   413 – Siding Spring Observatory MPC 7550
1981 03 08.72332 12 21 36.63 -08 01 54.3   413 – Siding Spring Observatory MPC 7550
1981 03 12.58070 12 18 34.45 -07 57 10.4   413 – Siding Spring Observatory MPC 7550
1981 04 09.50909 11 55 44.41 -06 52 20.0   413 – Siding Spring Observatory MPC 7550
1981 04 09.54382 11 55 43.12 -06 52 15.6   413 – Siding Spring Observatory MPC 7550
1981 05 01.49549 11 44 07.49 -06 05 37.9   413 – Siding Spring Observatory MPC 10250
1981 05 03.39307 11 43 34.87 -06 03 15.1   413 – Siding Spring Observatory MPC 10250
1997 02 04.71350 10 10 06.88 +16 38 57.7   327 – Peking Observatory, Xinglong Station MPC 29191
1997 02 04.72860 10 10 06.12 +16 38 58.7 18.9   327 – Peking Observatory, Xinglong Station MPC 29191
1997 02 04.74372 10 10 05.25 +16 39 00.2   327 – Peking Observatory, Xinglong Station MPC 29191
1997 02 14.76839 10 01 00.38 +16 53 31.0 18.8   327 – Peking Observatory, Xinglong Station MPC 29191
1997 02 14.78330 10 00 59.50 +16 53 31.7   327 – Peking Observatory, Xinglong Station MPC 29191
1997 02 14.79797 10 00 58.62 +16 53 33.1   327 – Peking Observatory, Xinglong Station MPC 29191
2000 08 26.33482 00 20 53.54 +06 28 04.5 18.9   704 – Lincoln Laboratory ETS, New Mexico MPS 17298
2000 08 26.34817 00 20 53.09 +06 28 06.0 18.9   704 – Lincoln Laboratory ETS, New Mexico MPS 17298
2000 08 26.36154 00 20 52.69 +06 28 06.2 19.0   704 – Lincoln Laboratory ETS, New Mexico MPS 17298
2000 08 26.37490 00 20 52.18 +06 28 06.3 19.2   704 – Lincoln Laboratory ETS, New Mexico MPS 17298
2000 08 26.38828 00 20 51.78 +06 28 05.8 19.0   704 – Lincoln Laboratory ETS, New Mexico MPS 17298
2000 09 02.39200 00 16 39.67 +06 27 05.2 18.8 R 699 – Lowell Observatory-LONEOS MPS 17298
2000 09 02.41130 00 16 38.86 +06 27 05.1   699 – Lowell Observatory-LONEOS MPS 17298
2000 09 02.43060 00 16 38.04 +06 27 03.6   699 – Lowell Observatory-LONEOS MPS 17298
2000 09 02.44989 00 16 37.21 +06 27 03.0   699 – Lowell Observatory-LONEOS MPS 17298
2000 09 23.26138 00 00 33.82 +05 54 51.6 18.7   704 – Lincoln Laboratory ETS, New Mexico MPS 18837
2000 09 23.27644 00 00 33.08 +05 54 50.2 19.4   704 – Lincoln Laboratory ETS, New Mexico MPS 18837
2000 09 23.29116 00 00 32.27 +05 54 47.9 18.9   704 – Lincoln Laboratory ETS, New Mexico MPS 18837
2000 09 23.30590 00 00 31.54 +05 54 46.1 19.4   704 – Lincoln Laboratory ETS, New Mexico MPS 18837
2000 09 23.32062 00 00 30.75 +05 54 43.3 19.4   704 – Lincoln Laboratory ETS, New Mexico MPS 18837
2000 10 01.20808 23 53 58.16 +05 34 49.6 19.0 R 699 – Lowell Observatory-LONEOS MPS 20610
2000 10 01.22737 23 53 57.18 +05 34 46.0   699 – Lowell Observatory-LONEOS MPS 20610
2000 10 01.24668 23 53 56.22 +05 34 42.7   699 – Lowell Observatory-LONEOS MPS 20610
2000 10 01.26604 23 53 55.29 +05 34 39.4   699 – Lowell Observatory-LONEOS MPS 20610
2000 10 03.25906 23 52 18.70 +05 29 21.4 19.0   704 – Lincoln Laboratory ETS, New Mexico MPS 18837
2000 10 03.27458 23 52 17.94 +05 29 19.4 19.5   704 – Lincoln Laboratory ETS, New Mexico MPS 18837
2000 10 03.29042 23 52 17.08 +05 29 17.6 19.6   704 – Lincoln Laboratory ETS, New Mexico MPS 18837
2000 10 03.31652 23 52 15.87 +05 29 12.0 19.1   704 – Lincoln Laboratory ETS, New Mexico MPS 18837
2000 10 03.33408 23 52 14.99 +05 29 08.9 19.4   704 – Lincoln Laboratory ETS, New Mexico MPS 18837
2001 10 25.45880 07 04 08.70 +35 20 31.0 20.4   704 – Lincoln Laboratory ETS, New Mexico MPS 38760
2001 10 25.47513 07 04 09.23 +35 20 33.9 20.4   704 – Lincoln Laboratory ETS, New Mexico MPS 38760
2001 10 25.49142 07 04 09.74 +35 20 36.3 20.7   704 – Lincoln Laboratory ETS, New Mexico MPS 38760
2001 12 09.33536 06 59 35.78 +37 38 33.5 18.8   704 – Lincoln Laboratory ETS, New Mexico MPS 42722
2001 12 09.35140 06 59 35.04 +37 38 35.4 19.4   704 – Lincoln Laboratory ETS, New Mexico MPS 42722
2001 12 09.36710 06 59 34.23 +37 38 37.7 19.0   704 – Lincoln Laboratory ETS, New Mexico MPS 42722
2001 12 14.30822 06 55 23.38 +37 48 34.5 19.2   704 – Lincoln Laboratory ETS, New Mexico MPS 42722
2001 12 14.33932 06 55 21.71 +37 48 37.5 19.5   704 – Lincoln Laboratory ETS, New Mexico MPS 42722
2001 12 14.36975 06 55 19.96 +37 48 41.0 18.9   704 – Lincoln Laboratory ETS, New Mexico MPS 42722
2001 12 22.30253 06 47 36.49 +37 57 34.9 18.7   704 – Lincoln Laboratory ETS, New Mexico MPS 42722
2001 12 22.31767 06 47 35.47 +37 57 35.8 18.6   704 – Lincoln Laboratory ETS, New Mexico MPS 42722
2001 12 22.33318 06 47 34.48 +37 57 36.9 18.8   704 – Lincoln Laboratory ETS, New Mexico MPS 42722
2001 12 22.34815 06 47 33.48 +37 57 36.4 18.7   704 – Lincoln Laboratory ETS, New Mexico MPS 42722
2001 12 22.36308 06 47 32.54 +37 57 37.3 18.6   704 – Lincoln Laboratory ETS, New Mexico MPS 42722
2001 12 23.29157 06 46 34.99 +37 57 59.8 18.4   704 – Lincoln Laboratory ETS, New Mexico MPS 42722
2001 12 23.30676 06 46 34.02 +37 58 01.1 18.6   704 – Lincoln Laboratory ETS, New Mexico MPS 42722
2001 12 23.32195 06 46 33.06 +37 58 01.3 18.9   704 – Lincoln Laboratory ETS, New Mexico MPS 42722
2001 12 23.33714 06 46 32.08 +37 58 01.8 18.7   704 – Lincoln Laboratory ETS, New Mexico MPS 42722
2001 12 23.35238 06 46 31.09 +37 58 02.1 18.8   704 – Lincoln Laboratory ETS, New Mexico MPS 42722
2002 01 14.19031 06 23 55.47 +37 23 47.0 18.6   644 – Palomar Mountain/NEAT MPS 51052
2002 01 14.19271 06 23 55.34 +37 23 47.0 18.6   644 – Palomar Mountain/NEAT MPS 51052
2002 01 14.21282 06 23 54.17 +37 23 42.8 18.8   644 – Palomar Mountain/NEAT MPS 51052
2002 01 14.21510 06 23 54.05 +37 23 42.4 18.6   644 – Palomar Mountain/NEAT MPS 51052
2002 01 14.23378 06 23 52.97 +37 23 38.7 18.7   644 – Palomar Mountain/NEAT MPS 51052
2002 01 14.23631 06 23 52.82 +37 23 38.5 18.8   644 – Palomar Mountain/NEAT MPS 51052
2002 01 21.23912 06 18 00.19 +36 56 39.1 19.3   704 – Lincoln Laboratory ETS, New Mexico MPS 51052
2002 01 21.25407 06 17 59.46 +36 56 35.5 19.3   704 – Lincoln Laboratory ETS, New Mexico MPS 51052
2002 01 21.28635 06 17 57.99 +36 56 27.0 19.0   704 – Lincoln Laboratory ETS, New Mexico MPS 51052
2002 01 21.30148 06 17 57.25 +36 56 23.0 18.9   704 – Lincoln Laboratory ETS, New Mexico MPS 51052
2002 02 08.24807 06 09 13.70 +35 26 48.5 20.0   704 – Lincoln Laboratory ETS, New Mexico MPS 51052
2002 02 08.26234 06 09 13.44 +35 26 44.8 20.3   704 – Lincoln Laboratory ETS, New Mexico MPS 51052
2002 02 08.27660 06 09 13.17 +35 26 38.8 20.2   704 – Lincoln Laboratory ETS, New Mexico MPS 51052
2002 02 08.29099 06 09 12.99 +35 26 34.2 20.1   704 – Lincoln Laboratory ETS, New Mexico MPS 51052
2002 02 13.32064 06 08 35.74 +34 58 54.1 19.8 V 291 – LPL/Spacewatch II MPS 53837
2002 02 13.32577 06 08 35.74 +34 58 52.3 19.8 V 291 – LPL/Spacewatch II MPS 53837
2002 02 13.33064 06 08 35.71 +34 58 50.6 19.8 V 291 – LPL/Spacewatch II MPS 53837
2003 03 28.36308 12 38 00.46 -12 36 39.1 19.0   644 – Palomar Mountain/NEAT MPS 77346
2003 03 28.40105 12 37 58.52 -12 36 34.5 19.3   644 – Palomar Mountain/NEAT MPS 77346
2003 03 28.42969 12 37 57.01 -12 36 30.4 19.8   644 – Palomar Mountain/NEAT MPS 77346
2003 03 29.28789 12 37 13.34 -12 34 36.4 18.6 R 699 – Lowell Observatory-LONEOS MPS 77346
2003 03 29.30214 12 37 12.74 -12 34 35.8   699 – Lowell Observatory-LONEOS MPS 77346
2003 03 29.31646 12 37 11.89 -12 34 32.4   699 – Lowell Observatory-LONEOS MPS 77346
2003 03 29.33085 12 37 11.14 -12 34 30.2   699 – Lowell Observatory-LONEOS MPS 77346
2003 03 31.22629 12 35 34.59 -12 29 59.7 17.9   704 – Lincoln Laboratory ETS, New Mexico MPS 77346
2003 03 31.23785 12 35 33.94 -12 29 58.6 19.5   704 – Lincoln Laboratory ETS, New Mexico MPS 77346
2003 03 31.24939 12 35 33.36 -12 29 56.4 18.6   704 – Lincoln Laboratory ETS, New Mexico MPS 77346
2003 03 31.25687 12 35 32.94 -12 29 56.4 18.5 R 699 – Lowell Observatory-LONEOS MPS 77346
2003 03 31.26088 12 35 32.72 -12 29 54.8 19.0   704 – Lincoln Laboratory ETS, New Mexico MPS 77346
